Total_Precipitation_Accumulation
0.00 0.00 0.00 0.00 0.00 0.00 0.00 0.01 0.01 0.01 0.03 0.05 0.07 0.08 0.09 0.11 0.13 0.14 0.15 0.30 0.36 0.31 0.33 0.33 0.26 0.23 0.23
0.00 0.00 0.00 0.00 0.00 0.00 0.00 0.00 0.00 0.01 0.04 0.05 0.06 0.08 0.10 0.13 0.14 0.13 0.11 0.08 0.12 0.27 0.34 0.30 0.31 0.31 0.25
0.01 0.00 0.00 0.00 0.00 0.00 0.00 0.00 0.01 0.03 0.05 0.06 0.08 0.09 0.09 0.07 0.07 0.08 0.10 0.11 0.11 0.10 0.16 0.31 0.36 0.27 0.24
0.01 0.01 0.00 0.00 0.00 0.00 0.00 0.00 0.01 0.02 0.04 0.08 0.11 0.08 0.07 0.08 0.07 0.07 0.09 0.11 0.13 0.13 0.12 0.12 0.20 0.35 0.35
0.04 0.03 0.03 0.02 0.02 0.01 0.01 0.00 0.00 0.01 0.02 0.04 0.15 0.20 0.17 0.12 0.09 0.12 0.15 0.18 0.20 0.20 0.22 0.24 0.21 0.20 0.26
0.08 0.06 0.03 0.03 0.02 0.01 0.01 0.02 0.02 0.00 0.03 0.07 0.09 0.21 0.24 0.23 0.23 0.24 0.22 0.19 0.19 0.20 0.19 0.21 0.23 0.23 0.24
0.05 0.03 0.03 0.03 0.02 0.01 0.01 0.02 0.01 0.00 0.01 0.04 0.03 0.08 0.09 0.22 0.32 0.29 0.25 0.19 0.17 0.16 0.16 0.19 0.20 0.23 0.25
0.01 0.02 0.01 0.00 0.01 0.02 0.02 0.03 0.02 0.00 0.00 0.03 0.01 0.04 0.05 0.09 0.18 0.24 0.25 0.23 0.19 0.18 0.17 0.17 0.18 0.17 0.20
0.06 0.07 0.07 0.09 0.14 0.22 0.30 0.31 0.23 0.07 0.03 0.06 0.02 0.02 0.04 0.07 0.11 0.13 0.14 0.18 0.21 0.23 0.23 0.20 0.19 0.22 0.22
0.00 0.01 0.03 0.05 0.05 0.09 0.15 0.18 0.11 0.04 0.01 0.01 0.01 0.01 0.03 0.05 0.07 0.15 0.18 0.20 0.21 0.23 0.28 0.29 0.24 0.23 0.21
0.22 0.19 0.13 0.07 0.03 0.01 0.00 0.01 0.02 0.02 0.00 0.01 0.02 0.02 0.04 0.03 0.07 0.13 0.24 0.28 0.29 0.24 0.16 0.19 0.24 0.26 0.21
0.11 0.06 0.03 0.02 0.01 0.01 0.01 0.01 0.01 0.01 0.00 0.01 0.03 0.03 0.05 0.04 0.02 0.04 0.15 0.25 0.30 0.38 0.35 0.30 0.31 0.35 0.37
0.00 0.00 0.00 0.00 0.00 0.01 0.03 0.02 0.02 0.01 0.01 0.02 0.04 0.06 0.09 0.10 0.07 0.04 0.07 0.22 0.29 0.32 0.32 0.38 0.39 0.35 0.38
0.00 0.00 0.00 0.00 0.00 0.01 0.01 0.01 0.02 0.01 0.00 0.01 0.02 0.03 0.05 0.04 0.05 0.05 0.04 0.11 0.22 0.34 0.36 0.39 0.41 0.41 0.39
0.00 0.00 0.00 0.00 0.00 0.01 0.01 0.02 0.04 0.01 0.00 0.00 0.00 0.01 0.02 0.02 0.03 0.03 0.04 0.08 0.09 0.22 0.36 0.45 0.39 0.36 0.36
0.00 0.01 0.01 0.01 0.01 0.01 0.02 0.04 0.04 0.01 0.01 0.00 0.01 0.03 0.04 0.03 0.02 0.02 0.02 0.05 0.07 0.11 0.32 0.44 0.38 0.29 0.29
0.01 0.01 0.01 0.01 0.01 0.02 0.02 0.03 0.03 0.01 0.00 0.01 0.02 0.06 0.12 0.06 0.00 0.01 0.02 0.02 0.04 0.08 0.16 0.36 0.40 0.23 0.22